Weather Roundup
Issued by NWS Corpus Christi, TX

Home | Current Version | Previous Version | Text Only | Print | Product List | Glossary On
Versions: 1 2 3 4 5 6 7 8 9 10 11 12 13 14 15 16 17 18 19 20 21 22 23 24 25 26 27 28 29 30 31 32 33 34 35 36 37 38 39 40 41 42 43 44 45 46 47 48 49 50
000
ASUS44 KCRP 171410
HRRCRP

SOUTH TEXAS REGIONAL WEATHER ROUNDUP
NATIONAL WEATHER SERVICE CORPUS CHRISTI TX
900 AM CDT THU APR 17 2014


TXZ229>244-171500-
...CORPUS CHRISTI AREA OBSERVATIONS...

CITY           SKY/WX    TMP DP  RH WIND       PRES   REMARKS
CORPUS CHRISTI LGT RAIN  68  62  81 SE10      29.99R
NAS CORPUS CHR CLOUDY    67  63  87 SE15      29.99R
ROCKPORT       PTSUNNY   68  61  78 SE16      29.99S
KINGSVILLE NAS CLOUDY    68  64  87 E13       29.99R
ALICE          CLOUDY    68  62  81 E9        29.99R
FALFURRIAS     PTSUNNY   68  64  86 E5        29.98R
$$

...VICTORIA AREA OBSERVATIONS...

CITY           SKY/WX    TMP DP  RH WIND       PRES   REMARKS
VICTORIA       CLOUDY    65  60  84 SE10      29.99F
BEEVILLE       CLOUDY    66  62  85 E8        30.00R
PLEASANTON     HVY RAIN  63  57  80 E7        30.01R
SAN ANTONIO    CLOUDY    61  55  81 E6        30.02R
$$

...LAREDO AREA OBSERVATIONS...

CITY           SKY/WX    TMP DP  RH WIND       PRES   REMARKS
LAREDO         CLOUDY    65  56  72 SE14      29.99R
COTULLA        CLOUDY    64  57  78 SE14      29.98R
DEL RIO        CLOUDY    61  54  77 E16       29.97R
MCALLEN        CLOUDY    67  61  81 E9        29.96R
HEBBRONVILLE   CLOUDY    63  59  86 E9        30.00R
$$

...OTHER TEXAS OBSERVATIONS...

CITY           SKY/WX    TMP DP  RH WIND       PRES   REMARKS
BROWNSVILLE    TSTM      67  65  93 SE7       29.94R
HOUSTON        CLOUDY    58  54  86 E13       30.07S THUNDER
COL. STATION   CLOUDY    57  53  86 E7        30.07S
AUSTIN         CLOUDY    58  54  86 E7        30.04R
WACO           CLOUDY    56  51  84 SE12      30.10R
FORT WORTH     MOSUNNY   56  48  74 SE9       30.12R
WICHITA FALLS  MOSUNNY   56  48  74 S13       30.09R
LUBBOCK        CLOUDY    49  41  74 E15       30.05R
EL PASO        SUNNY     59  16  18 NE7       30.01R
$$

...MARINE OBSERVATIONS...

STATION/POSITION TIME  SKY/WX   TEMP    WIND        PRES    VSBY  WAVE   SWELL
                                AIR SEA DIR/SP/G                  HT/PER HT/PER
                 (UTC)          (F)     (DEG/KT/KT) (MB)    (MI)  (FT/S) (FT/S)
PORT ARANSAS     1400            67 66  120/ 10/ 11 1015.6R
BUOY 90 E PORT A NOT AVBL
BUOY 45 SE BAFFI 1400            69 69  120/ 14/ 16 1014.1F         4/ 7   2/ 7
BUOY 200 E PT IS NOT AVBL
BUOY 15 E GALVES 1400            65 66  100/ 17/ 21 1018.0R         4/ 6
$$


USA.gov is the U.S. government's official web portal to all federal, state and local government web resources and services.